TimeCDT,TemperatureF,Dew PointF,Humidity,Sea Level PressureIn,VisibilityMPH,Wind Direction,Wind SpeedMPH,Gust SpeedMPH,PrecipitationIn,Events,Conditions,WindDirDegrees,DateUTC
12:18 AM,25.9,20.3,79,30.33,10.0,Calm,Calm,-,N/A,,Clear,0,2013-04-03 05:18:00
12:38 AM,25.7,20.1,79,30.33,10.0,Calm,Calm,-,N/A,,Clear,0,2013-04-03 05:38:00
12:57 AM,25.3,20.1,81,30.33,10.0,Calm,Calm,-,N/A,,Clear,0,2013-04-03 05:57:00
1:18 AM,25.3,19.8,79,30.33,10.0,Calm,Calm,-,N/A,,Clear,0,2013-04-03 06:18:00
1:37 AM,25.3,19.4,78,30.34,10.0,Calm,Calm,-,N/A,,Clear,0,2013-04-03 06:37:00
1:58 AM,25.2,19.9,81,30.33,10.0,Calm,Calm,-,N/A,,Clear,0,2013-04-03 06:58:00
2:18 AM,24.8,20.1,82,30.33,10.0,Calm,Calm,-,N/A,,Clear,0,2013-04-03 07:18:00
2:38 AM,24.4,19.9,83,30.33,10.0,Calm,Calm,-,N/A,,Clear,0,2013-04-03 07:38:00
2:57 AM,24.1,19.8,84,30.33,10.0,Calm,Calm,-,N/A,,Clear,0,2013-04-03 07:57:00
3:17 AM,24.4,19.4,81,30.32,10.0,Calm,Calm,-,N/A,,Clear,0,2013-04-03 08:17:00
3:38 AM,24.8,19.4,80,30.32,10.0,SSE,5.8,-,N/A,,Clear,160,2013-04-03 08:38:00
3:58 AM,24.4,19.4,81,30.31,10.0,Calm,Calm,-,N/A,,Clear,0,2013-04-03 08:58:00
4:17 AM,24.6,19.2,80,30.31,10.0,SSE,5.8,-,N/A,,Clear,160,2013-04-03 09:17:00
4:37 AM,24.6,18.7,78,30.31,10.0,SSE,8.1,-,N/A,,Clear,160,2013-04-03 09:37:00
4:58 AM,24.6,18.5,78,30.31,10.0,South,9.2,-,N/A,,Clear,170,2013-04-03 09:58:00
5:18 AM,24.8,17.8,75,30.31,10.0,South,10.4,-,N/A,,Clear,170,2013-04-03 10:18:00
5:38 AM,24.8,17.8,75,30.31,10.0,SSE,8.1,-,N/A,,Clear,160,2013-04-03 10:38:00
5:58 AM,24.8,17.6,74,30.30,10.0,South,10.4,-,N/A,,Clear,170,2013-04-03 10:58:00
6:18 AM,24.8,17.6,74,30.30,10.0,South,10.4,-,N/A,,Clear,170,2013-04-03 11:18:00
6:38 AM,24.6,18.0,76,30.29,10.0,South,9.2,-,N/A,,Clear,170,2013-04-03 11:38:00
6:57 AM,24.6,18.1,76,30.29,10.0,South,9.2,-,N/A,,Clear,170,2013-04-03 11:57:00
7:18 AM,24.8,18.5,77,30.30,10.0,South,9.2,-,N/A,,Clear,170,2013-04-03 12:18:00
7:38 AM,25.9,19.0,75,30.30,10.0,South,12.7,-,N/A,,Clear,170,2013-04-03 12:38:00
7:57 AM,26.8,19.4,74,30.29,10.0,South,15.0,-,N/A,,Clear,180,2013-04-03 12:57:00
8:17 AM,28.2,20.3,72,30.28,10.0,South,13.8,-,N/A,,Clear,170,2013-04-03 13:17:00
8:38 AM,30.0,20.7,68,30.28,10.0,South,15.0,19.6,N/A,,Clear,180,2013-04-03 13:38:00
8:58 AM,31.3,21.0,66,30.27,10.0,South,17.3,26.5,N/A,,Clear,180,2013-04-03 13:58:00
9:18 AM,32.0,21.9,66,30.27,10.0,South,19.6,25.3,N/A,,Clear,180,2013-04-03 14:18:00
9:37 AM,33.3,23.5,68,30.26,10.0,South,15.0,21.9,N/A,,Clear,170,2013-04-03 14:37:00
9:58 AM,34.7,23.9,65,30.25,10.0,South,13.8,26.5,N/A,,Clear,170,2013-04-03 14:58:00
10:18 AM,36.1,24.3,62,30.25,10.0,South,17.3,23.0,N/A,,Clear,170,2013-04-03 15:18:00
10:37 AM,37.8,24.6,59,30.23,10.0,South,17.3,24.2,N/A,,Clear,170,2013-04-03 15:37:00
10:57 AM,39.4,25.3,57,30.23,10.0,South,19.6,24.2,N/A,,Clear,180,2013-04-03 15:57:00
11:18 AM,40.3,25.0,54,30.22,10.0,South,20.7,27.6,N/A,,Clear,180,2013-04-03 16:18:00
11:37 AM,41.0,26.2,56,30.21,10.0,South,16.1,25.3,N/A,,Clear,170,2013-04-03 16:37:00
11:57 AM,42.1,26.6,54,30.21,10.0,South,17.3,25.3,N/A,,Clear,180,2013-04-03 16:57:00
12:18 PM,43.0,26.8,53,30.21,10.0,South,18.4,29.9,N/A,,Clear,180,2013-04-03 17:18:00
12:38 PM,44.4,27.7,52,30.20,10.0,South,15.0,24.2,N/A,,Clear,180,2013-04-03 17:38:00
12:58 PM,46.0,28.0,50,30.19,10.0,South,18.4,27.6,N/A,,Clear,190,2013-04-03 17:58:00
1:18 PM,46.9,29.1,50,30.18,10.0,South,19.6,26.5,N/A,,Clear,180,2013-04-03 18:18:00
1:37 PM,47.8,29.7,49,30.17,10.0,South,21.9,28.8,N/A,,Clear,190,2013-04-03 18:37:00
1:58 PM,48.4,30.4,50,30.16,10.0,South,19.6,27.6,N/A,,Clear,190,2013-04-03 18:58:00
2:18 PM,49.3,30.7,49,30.15,10.0,South,20.7,29.9,N/A,,Clear,190,2013-04-03 19:18:00
2:38 PM,50.5,30.7,47,30.14,10.0,SSW,20.7,28.8,N/A,,Clear,210,2013-04-03 19:38:00
2:58 PM,51.4,31.1,46,30.13,10.0,South,18.4,29.9,N/A,,Clear,190,2013-04-03 19:58:00
3:18 PM,52.7,30.6,43,30.12,10.0,SSW,20.7,31.1,N/A,,Clear,200,2013-04-03 20:18:00
3:37 PM,54.1,31.3,42,30.11,10.0,South,19.6,31.1,N/A,,Clear,190,2013-04-03 20:37:00
3:58 PM,54.5,31.1,41,30.10,10.0,SSW,18.4,29.9,N/A,,Clear,200,2013-04-03 20:58:00
4:18 PM,54.5,31.1,41,30.10,10.0,SSW,23.0,32.2,N/A,,Clear,210,2013-04-03 21:18:00
4:38 PM,55.2,31.5,40,30.09,10.0,SSW,23.0,29.9,N/A,,Clear,210,2013-04-03 21:38:00
4:58 PM,55.4,31.3,40,30.08,10.0,South,19.6,28.8,N/A,,Clear,190,2013-04-03 21:58:00
5:17 PM,55.6,31.3,40,30.08,10.0,SSW,17.3,31.1,N/A,,Clear,200,2013-04-03 22:17:00
5:37 PM,55.6,30.7,39,30.07,10.0,SSW,19.6,31.1,N/A,,Clear,210,2013-04-03 22:37:00
5:57 PM,55.4,31.1,40,30.06,10.0,SSW,17.3,27.6,N/A,,Clear,200,2013-04-03 22:57:00
6:18 PM,55.4,31.3,40,30.05,10.0,South,17.3,26.5,N/A,,Clear,190,2013-04-03 23:18:00
6:38 PM,54.9,31.1,40,30.05,10.0,South,13.8,27.6,N/A,,Clear,190,2013-04-03 23:38:00
6:57 PM,54.0,31.8,43,30.04,10.0,South,15.0,26.5,N/A,,Clear,190,2013-04-03 23:57:00
7:17 PM,52.7,32.0,45,30.04,10.0,South,16.1,23.0,N/A,,Clear,180,2013-04-04 00:17:00
7:38 PM,51.3,32.0,48,30.04,10.0,South,13.8,20.7,N/A,,Clear,190,2013-04-04 00:38:00
7:57 PM,50.0,32.0,50,30.03,10.0,South,15.0,21.9,N/A,,Clear,190,2013-04-04 00:57:00
8:17 PM,48.6,32.0,53,30.03,10.0,South,19.6,25.3,N/A,,Clear,190,2013-04-04 01:17:00
8:37 PM,47.3,32.0,55,30.02,10.0,South,18.4,23.0,N/A,,Clear,190,2013-04-04 01:37:00
8:58 PM,46.4,31.8,57,30.03,10.0,SSW,19.6,24.2,N/A,,Clear,200,2013-04-04 01:58:00
9:18 PM,45.5,31.6,58,30.03,10.0,SSW,18.4,26.5,N/A,,Clear,200,2013-04-04 02:18:00
9:37 PM,44.8,31.1,59,30.03,10.0,SSW,20.7,28.8,N/A,,Clear,200,2013-04-04 02:37:00
9:57 PM,44.6,30.7,58,30.02,10.0,SSW,24.2,29.9,N/A,,Clear,200,2013-04-04 02:57:00
10:17 PM,44.4,30.2,57,30.02,10.0,SSW,24.2,31.1,N/A,,Clear,200,2013-04-04 03:17:00
10:37 PM,44.6,29.7,56,30.02,10.0,SSW,21.9,31.1,N/A,,Clear,210,2013-04-04 03:37:00
10:57 PM,44.6,29.3,55,30.01,10.0,SSW,23.0,31.1,N/A,,Clear,200,2013-04-04 03:57:00
11:18 PM,45.3,29.1,53,30.01,10.0,SSW,23.0,31.1,N/A,,Clear,210,2013-04-04 04:18:00
11:38 PM,45.0,28.9,53,30.01,10.0,SSW,27.6,34.5,N/A,,Scattered Clouds,210,2013-04-04 04:38:00
11:57 PM,44.2,28.8,55,30.01,10.0,SSW,25.3,34.5,N/A,,Scattered Clouds,210,2013-04-04 04:57:00